Starlink 34849

operational
NORAD ID: 66005 Int'l Des: 2025-232 Owner: SPXS Country: US Constellation: starlink
LEOCIRCULAR

About Starlink 34849

Description loading...

Live Position

Loading 3D Globe...

Upcoming Passes

Altitude History

Altitude vs Time

uPlot chart will show altitude changes over time

Two-Line Element Set

1 66005U 25232A 25338.61830458 .00074573 00000-0 18536-2 0 9998
2 66005 53.1552 185.9440 0001213 92.5690 267.5454 15.39660859 8866
Epoch: Dec 4, 2025 • Age: 15 hours

Current Status

Altitude 450.6 km
Velocity 7.65 km/s
Sub-Earth Point 44.37°N, 161.38°E
Launch Date Oct 16, 2025
Age 0.1 years
Type internet

Technical Details

Classification Payload
Mass 575.00 kg
Dry Mass 530.00 kg
Total Mass 575.00 kg
Length 0.30 m
Diameter 4.10 m
Span 29.00 m
Shape Box + pan
Manufacturer SPXS
Bus Type Starlink V2MO
Phase Status In Orbit
Owner/State SPXS/US

Large Constellations

Loading constellations...